TimeMDT,TemperatureF,Dew PointF,Humidity,Sea Level PressureIn,VisibilityMPH,Wind Direction,Wind SpeedMPH,Gust SpeedMPH,PrecipitationIn,Events,Conditions,WindDirDegrees,DateUTC
12:53 AM,44.1,21.9,42,30.17,10.0,South,10.4,-,N/A,,Clear,170,2012-10-19 06:53:00
1:53 AM,43.0,21.9,43,30.14,10.0,South,10.4,-,N/A,,Clear,170,2012-10-19 07:53:00
2:53 AM,43.0,21.9,43,30.12,10.0,South,9.2,-,N/A,,Clear,170,2012-10-19 08:53:00
3:53 AM,43.0,21.9,43,30.11,10.0,SSW,4.6,-,N/A,,Clear,200,2012-10-19 09:53:00
4:53 AM,43.0,21.9,43,30.11,10.0,Calm,Calm,-,N/A,,Clear,0,2012-10-19 10:53:00
5:53 AM,41.0,23.0,49,30.10,10.0,South,10.4,-,N/A,,Clear,170,2012-10-19 11:53:00
6:53 AM,41.0,23.0,49,30.10,10.0,South,10.4,-,N/A,,Clear,170,2012-10-19 12:53:00
7:53 AM,39.9,23.0,51,30.11,10.0,SSE,6.9,-,N/A,,Clear,160,2012-10-19 13:53:00
8:53 AM,43.0,24.1,47,30.12,10.0,South,5.8,-,N/A,,Clear,170,2012-10-19 14:53:00
9:53 AM,48.0,24.1,39,30.11,10.0,South,4.6,-,N/A,,Clear,170,2012-10-19 15:53:00
10:53 AM,55.9,23.0,28,30.10,10.0,Calm,Calm,-,N/A,,Clear,0,2012-10-19 16:53:00
11:53 AM,59.0,25.0,27,30.06,10.0,Calm,Calm,-,N/A,,Clear,0,2012-10-19 17:53:00
12:53 PM,63.0,24.1,23,30.04,10.0,Variable,5.8,-,N/A,,Clear,0,2012-10-19 18:53:00
1:53 PM,64.9,21.9,19,30.00,10.0,SW,8.1,-,N/A,,Clear,220,2012-10-19 19:53:00
2:53 PM,64.9,23.0,20,29.97,10.0,SW,3.5,-,N/A,,Clear,230,2012-10-19 20:53:00
3:53 PM,66.0,24.1,20,29.95,10.0,Calm,Calm,-,N/A,,Clear,0,2012-10-19 21:53:00
4:53 PM,64.9,25.0,22,29.94,10.0,Calm,Calm,-,0.00,Rain,Light Rain,0,2012-10-19 22:53:00
5:53 PM,66.9,25.0,21,29.92,10.0,Calm,Calm,-,0.00,Rain,Light Rain,0,2012-10-19 23:53:00
6:53 PM,61.0,28.9,30,29.91,10.0,Calm,Calm,-,0.00,,Clear,0,2012-10-20 00:53:00
7:53 PM,55.0,30.0,38,29.90,10.0,South,8.1,-,N/A,,Clear,170,2012-10-20 01:53:00
8:53 PM,55.9,26.1,32,29.88,10.0,South,9.2,-,N/A,,Clear,170,2012-10-20 02:53:00
9:53 PM,54.0,26.1,34,29.86,10.0,South,8.1,-,N/A,,Clear,170,2012-10-20 03:53:00
10:53 PM,52.0,26.1,37,29.84,10.0,South,3.5,-,N/A,,Scattered Clouds,170,2012-10-20 04:53:00
11:53 PM,55.9,25.0,30,29.81,10.0,South,6.9,-,N/A,,Overcast,180,2012-10-20 05:53:00